Macapa, Brazil

11:15 PM BRT on August 24, 2016 (GMT -0300)
Macapa International

Weather History for SBMQ - December, 2013

Change the Weather History Date:

Sunday, December 22, 2013

  Actual Average Record
Temperature  
Mean Temperature 82 °F -  
Max Temperature 91 °F 87 °F 95 °F (2011)
Min Temperature 74 °F 73 °F 73 °F (1999)
Cooling Degree Days 18    
Growing Degree Days 32 (Base 50)    
Moisture  
Dew Point 73 °F    
Average Humidity 72    
Maximum Humidity 100    
Minimum Humidity 43    
Precipitation  
Precipitation 0.00 in - - ()
Sea Level Pressure  
Sea Level Pressure 29.81 in    
Wind  
Wind Speed 5 mph ()    
Max Wind Speed 12 mph    
Max Gust Speed -    
Visibility 5.9 miles    
Events      
Averages and records for this station are not official NWS values.
T = Trace of Precipitation, MM = Missing Value Source: Averaged Metar Reports

Daily Weather History Graph

Daily Weather History Graph

Search for Another Location

Airport or City:

Trip Planner

Search our weather history database for the weather conditions in past years. The results will help you decide how hot, cold, wet, or windy it might be!

Date:

Astronomy

Dec. 22, 2013 Rise Set
Actual Time 6:19 AM BRT 6:26 PM BRT
Civil Twilight 5:56 AM BRT 6:49 PM BRT
Nautical Twilight 5:30 AM BRT 7:15 PM BRT
Astronomical Twilight 5:04 AM BRT 7:41 PM BRT
Moon 10:30 PM BRT (12/22) 10:08 AM BRT (12/22)
Length of Visible Light 12h 52m
Length of Day
12h 07m
Waning Gibbous, 77% of the Moon is Illuminated
Dec 22
Waning Gibbous
Dec 25
Last Quarter
Jan 1
New
Jan 8
First Quarter
Jan 16
Full

Hourly Weather History & Observations

Time (BRT) Temp. Heat Index Dew Point Humidity Pressure Visibility Wind Dir Wind Speed Gust Speed Precip Events Conditions
12:00 AM 80.6 °F 85.4 °F 73.4 °F 79% 29.80 in - NNE 5.8 mph - N/A   Clear
1:00 AM 78.8 °F - 73.4 °F 83% 29.80 in - NNW 4.6 mph - N/A   Clear
2:00 AM 78.8 °F - 73.4 °F 83% 29.80 in - NNW 4.6 mph - N/A   Clear
3:00 AM 77.0 °F - 73.4 °F 89% 29.77 in - North 4.6 mph - N/A   Clear
4:00 AM 77.0 °F - 73.4 °F 89% 29.77 in - North 4.6 mph - N/A   Clear
5:00 AM 77.0 °F - 73.4 °F 89% 29.80 in - North 3.5 mph - N/A   Clear
6:00 AM 75.2 °F - 73.4 °F 94% 29.80 in - West 2.3 mph - N/A   Clear
7:00 AM 75.2 °F - 75.2 °F 100% 29.80 in 6.2 mi NW 2.3 mph - N/A   Scattered Clouds
8:00 AM 78.8 °F - 75.2 °F 89% 29.83 in 6.2 mi NNW 5.8 mph - N/A   Scattered Clouds
9:00 AM 81 °F - 75 °F 77% 29.84 in 6 mi Calm Calm - -   Partly Cloudy
9:00 AM 84.2 °F 92.3 °F 75.2 °F 74% 29.86 in 6.2 mi NE 6.9 mph - N/A   Scattered Clouds
10:00 AM 86.0 °F 95.1 °F 75.2 °F 70% 29.86 in 6.2 mi ENE 8.1 mph - N/A   Scattered Clouds
11:00 AM 87.8 °F 95.6 °F 73.4 °F 62% 29.86 in 6.2 mi ENE 9.2 mph - N/A   Scattered Clouds
12:00 PM 93.2 °F 100.5 °F 71.6 °F 49% 29.86 in 6.2 mi East 9.2 mph - N/A   Scattered Clouds
1:00 PM 95.0 °F 104.5 °F 73.4 °F 49% 29.83 in 6.2 mi ENE 11.5 mph - N/A   Scattered Clouds
2:00 PM 93.2 °F 100.5 °F 71.6 °F 49% 29.80 in 6.2 mi ENE 11.5 mph - N/A   Scattered Clouds
3:00 PM 90 °F - 71 °F 43% 29.78 in 6 mi NE 4.6 mph - -   Partly Cloudy
3:00 PM 93.2 °F 100.5 °F 71.6 °F 49% 29.80 in 6.2 mi East 9.2 mph - N/A   Scattered Clouds
4:00 PM 93.2 °F 100.5 °F 71.6 °F 49% 29.77 in 6.2 mi ENE 10.4 mph - N/A   Scattered Clouds
5:00 PM 89.6 °F 98.2 °F 73.4 °F 59% 29.74 in 6.2 mi ENE 9.2 mph - N/A   Scattered Clouds
6:00 PM 86.0 °F 93.4 °F 73.4 °F 66% 29.74 in 6.2 mi ENE 9.2 mph - N/A   Scattered Clouds
7:00 PM 84.2 °F 89.6 °F 71.6 °F 66% 29.77 in 6.2 mi ENE 10.4 mph - N/A   Scattered Clouds
8:00 PM 84.2 °F 89.6 °F 71.6 °F 66% 29.77 in - ENE 6.9 mph - N/A   Clear
9:00 PM 83 °F - 75 °F 71% 29.83 in 2 mi Calm Calm - -   Partly Cloudy
9:00 PM 82.4 °F 88.2 °F 73.4 °F 74% 29.80 in - NE 6.9 mph - N/A   Clear
10:00 PM 82.4 °F 89.5 °F 75.2 °F 79% 29.83 in - NE 9.2 mph - N/A   Clear
11:00 PM 80.6 °F 86.2 °F 75.2 °F 84% 29.83 in - NE 5.8 mph - N/A   Clear